Weather History for Ottumwa, IA

Change the Weather History Date:

Thursday, March 14, 2013

  Actual Average Record
Temperature  
Mean Temperature 41 °F 38 °F  
Max Temperature 56 °F 48 °F 81 °F (2012)
Min Temperature 26 °F 28 °F 0 °F (1897)
Degree Days  
Heating Degree Days 24 27  
Month to date heating degree days 493 417  
Since 1 July heating degree days 5020 5302  
Cooling Degree Days 0 0  
Month to date cooling degree days 0 0  
Year to date cooling degree days 0 0  
Moisture  
Dew Point 28 °F    
Average Humidity 66    
Maximum Humidity 89    
Minimum Humidity 43    
Precipitation  
Precipitation T in 0.07 in 0.78 in (1904)
Month to date precipitation 1.83 0.94  
Year to date precipitation 5.16 3.12  
Sea Level Pressure  
Sea Level Pressure 30.16 in    
Wind  
Wind Speed 8 mph (South)    
Max Wind Speed 22 mph    
Max Gust Speed 26 mph    
Visibility 10 miles    
Events      
T = Trace of Precipitation, MM = Missing Value Source: NWS Daily Summary

Daily Weather History Graph

Daily Weather History Graph

Search for Another Location

Airport:

Trip Planner

Search our weather history database for the weather conditions in past years. The results will help you decide how hot, cold, wet, or windy it might be!

Date:

Astronomy

Mar. 14, 2013 Rise Set
Actual Time 7:22 AM CDT 7:15 PM CDT
Civil Twilight 6:55 AM CDT 7:43 PM CDT
Nautical Twilight 6:23 AM CDT 8:15 PM CDT
Astronomical Twilight 5:51 AM CDT 8:47 PM CDT
Moon 8:34 AM CDT (3/14) 10:34 PM CDT (3/14)
Length of Visible Light 12h 47m
Length of Day
11h 53m
Waxing Crescent, 9% of the Moon is Illuminated
Mar 14
Waxing Crescent
Mar 19
First Quarter
Mar 27
Full
Apr 2
Last Quarter
Apr 10
New

Hourly Weather History & Observations

Time (CDT) Temp. Windchill Dew Point Humidity Pressure Visibility Wind Dir Wind Speed Gust Speed Precip Events Conditions
12:53 AM 27.0 °F 23.0 °F 19.9 °F 75% 30.36 in 10.0 mi SSE 3.5 mph - N/A   Partly Cloudy
1:53 AM 27.0 °F 20.5 °F 21.0 °F 78% 30.33 in 10.0 mi SE 5.8 mph - N/A   Overcast
2:53 AM 28.0 °F 20.8 °F 19.9 °F 72% 30.30 in 10.0 mi South 6.9 mph - N/A   Clear
3:53 AM 28.0 °F 21.7 °F 19.9 °F 72% 30.28 in 10.0 mi SSE 5.8 mph - N/A   Clear
4:53 AM 28.0 °F 20.0 °F 21.0 °F 75% 30.25 in 10.0 mi SSE 8.1 mph - N/A   Clear
5:53 AM 30.0 °F 21.1 °F 21.9 °F 72% 30.23 in 10.0 mi South 10.4 mph - N/A   Overcast
6:53 AM 30.9 °F 22.2 °F 23.0 °F 72% 30.21 in 10.0 mi SSE 10.4 mph - N/A   Overcast
7:53 AM 32.0 °F 24.8 °F 24.1 °F 73% 30.22 in 10.0 mi ESE 8.1 mph - N/A   Overcast
8:53 AM 34.0 °F 26.0 °F 24.1 °F 67% 30.20 in 10.0 mi SSE 10.4 mph - 0.00 in   Overcast
9:53 AM 37.0 °F 27.7 °F 26.1 °F 65% 30.16 in 10.0 mi South 16.1 mph - N/A   Scattered Clouds
10:53 AM 37.9 °F 29.2 °F 26.1 °F 62% 30.15 in 10.0 mi South 15.0 mph - 0.00 in   Mostly Cloudy
11:53 AM 42.1 °F 35.7 °F 28.0 °F 58% 30.13 in 10.0 mi South 11.5 mph - N/A   Clear
12:53 PM 46.0 °F 41.0 °F 30.0 °F 54% 30.10 in 10.0 mi South 10.4 mph - N/A   Clear
1:53 PM 50.0 °F - 30.9 °F 48% 30.08 in 10.0 mi SW 4.6 mph - N/A   Clear
2:53 PM 54.0 °F - 33.1 °F 45% 30.07 in 10.0 mi WNW 10.4 mph - N/A   Clear
3:53 PM 55.0 °F - 34.0 °F 45% 30.07 in 10.0 mi West 5.8 mph - N/A   Clear
4:53 PM 55.0 °F - 36.0 °F 49% 30.08 in 10.0 mi North 8.1 mph - N/A   Clear
5:53 PM 53.1 °F - 37.0 °F 55% 30.08 in 10.0 mi North 8.1 mph - N/A   Clear
6:53 PM 46.0 °F 41.9 °F 37.0 °F 71% 30.09 in 10.0 mi North 8.1 mph - N/A   Clear
7:53 PM 39.0 °F 32.8 °F 33.1 °F 79% 30.12 in 10.0 mi NNW 9.2 mph - N/A   Clear
8:53 PM 39.9 °F 35.1 °F 33.1 °F 77% 30.11 in 10.0 mi NNE 6.9 mph - N/A   Clear
9:53 PM 37.0 °F 32.4 °F 32.0 °F 82% 30.11 in 10.0 mi NNE 5.8 mph - N/A   Clear
10:53 PM 33.1 °F 26.1 °F 30.0 °F 89% 30.12 in 8.0 mi NW 8.1 mph - N/A   Clear
11:53 PM 33.1 °F - 28.9 °F 85% 30.10 in 7.0 mi Calm Calm - N/A   Clear